Columbia, SC

5:04 AM EST on February 23, 2017 (GMT -0500)
Columbia Owens Downtown

Weather History for KCUB - October, 2012

Change the Weather History Date:

Monday, October 8, 2012

  Actual Average Record
Temperature  
Mean Temperature 57 °F 68 °F  
Max Temperature 60 °F 79 °F 91 °F (2007)
Min Temperature 53 °F 58 °F 46 °F (2000)
Degree Days  
Heating Degree Days 8 1  
Month to date heating degree days 8 8  
Since 1 July heating degree days 8 11  
Cooling Degree Days 0 4  
Month to date cooling degree days 68 44  
Year to date cooling degree days 2482 2191  
Growing Degree Days 6 (Base 50)    
Moisture  
Dew Point 51 °F    
Average Humidity 82    
Maximum Humidity 93    
Minimum Humidity 67    
Precipitation  
Precipitation 0.32 in 0.12 in 4.13 in (2016)
Month to date precipitation 0.94 0.97  
Year to date precipitation 37.77 36.86  
Sea Level Pressure  
Sea Level Pressure 30.13 in    
Wind  
Wind Speed 3 mph (ENE)    
Max Wind Speed 9 mph    
Max Gust Speed 15 mph    
Visibility 8 miles    
Events Rain    
T = Trace of Precipitation, MM = Missing Value Source: NWS Daily Summary

Daily Weather History Graph

Daily Weather History Graph

Search for Another Location

Airport or City:

Trip Planner

Search our weather history database for the weather conditions in past years. The results will help you decide how hot, cold, wet, or windy it might be!

Date:

Astronomy

Oct. 08, 2012 Rise Set
Actual Time 7:23 AM EDT 6:58 PM EDT
Civil Twilight 6:58 AM EDT 7:23 PM EDT
Nautical Twilight 6:29 AM EDT 7:52 PM EDT
Astronomical Twilight 6:01 AM EDT 8:21 PM EDT
Moon 12:20 AM EDT (10/8) 2:30 PM EDT (10/8)
Length of Visible Light 12h 24m
Length of Day
11h 34m
Waning Gibbous, 46% of the Moon is Illuminated
Oct 8
Waning Gibbous
Oct 15
New
Oct 21
First Quarter
Oct 29
Full
Nov 6
Last Quarter

Hourly Weather History & Observations

Time (EDT) Temp. Dew Point Humidity Pressure Visibility Wind Dir Wind Speed Gust Speed Precip Events Conditions
12:53 AM 59.0 °F 51.1 °F 75% 30.12 in 10.0 mi Variable 4.6 mph - N/A   Overcast
1:53 AM 59.0 °F 50.0 °F 72% 30.12 in 10.0 mi Variable 5.8 mph - N/A   Overcast
2:53 AM 59.0 °F 48.9 °F 69% 30.12 in 10.0 mi ENE 3.5 mph - N/A   Overcast
3:53 AM 59.0 °F 48.9 °F 69% 30.09 in 10.0 mi Variable 3.5 mph - N/A   Overcast
4:53 AM 59.0 °F 48.0 °F 67% 30.08 in 10.0 mi Calm Calm - N/A   Overcast
5:16 AM 57.2 °F 48.2 °F 72% 30.10 in 10.0 mi Variable 5.8 mph - N/A   Overcast
5:53 AM 59.0 °F 48.0 °F 67% 30.11 in 10.0 mi Calm Calm - N/A   Overcast
6:53 AM 57.9 °F 48.0 °F 70% 30.12 in 10.0 mi Variable 3.5 mph - N/A   Overcast
7:53 AM 57.9 °F 48.0 °F 70% 30.14 in 10.0 mi Variable 5.8 mph - N/A   Overcast
8:53 AM 55.9 °F 50.0 °F 80% 30.16 in 10.0 mi Calm Calm - N/A   Overcast
9:14 AM 55.4 °F 51.8 °F 88% 30.16 in 1.5 mi Variable 5.8 mph - 0.11 in Rain Rain
9:16 AM 55.4 °F 51.8 °F 88% 30.16 in 0.8 mi Variable 5.8 mph - 0.20 in Rain Heavy Rain
9:26 AM 53.6 °F 51.8 °F 94% 30.15 in 1.2 mi NE 3.5 mph - 0.24 in Rain Rain
9:29 AM 55.4 °F 53.6 °F 94% 30.15 in 3.0 mi Variable 3.5 mph - 0.24 in Rain Light Rain
9:45 AM 55.4 °F 51.8 °F 88% 30.16 in 1.8 mi East 5.8 mph - 0.29 in Rain Heavy Rain
9:53 AM 55.0 °F 53.1 °F 93% 30.15 in 2.5 mi Variable 3.5 mph - 0.30 in Rain Light Rain
10:00 AM 55.4 °F 53.6 °F 94% 30.16 in 4.0 mi Calm Calm - 0.01 in Rain Light Rain
10:12 AM 55.4 °F 53.6 °F 94% 30.16 in 10.0 mi Calm Calm - 0.01 in   Overcast
10:38 AM 55.4 °F 53.6 °F 94% 30.16 in 10.0 mi ENE 5.8 mph - 0.01 in   Overcast
10:53 AM 55.9 °F 53.1 °F 90% 30.16 in 10.0 mi Variable 3.5 mph - 0.01 in   Overcast
11:53 AM 55.9 °F 53.1 °F 90% 30.17 in 7.0 mi Variable 3.5 mph - 0.01 in Rain Light Rain
12:53 PM 55.9 °F 53.1 °F 90% 30.15 in 10.0 mi Variable 3.5 mph - 0.00 in   Overcast
1:53 PM 55.9 °F 53.1 °F 90% 30.14 in 10.0 mi Variable 3.5 mph - 0.00 in   Overcast
2:53 PM 57.0 °F 53.1 °F 87% 30.10 in 10.0 mi Variable 5.8 mph - N/A   Overcast
3:53 PM 57.0 °F 52.0 °F 83% 30.10 in 10.0 mi Variable 4.6 mph - N/A   Overcast
4:53 PM 57.0 °F 52.0 °F 83% 30.11 in 10.0 mi Variable 4.6 mph - N/A   Overcast
5:53 PM 57.0 °F 51.1 °F 81% 30.12 in 10.0 mi Variable 5.8 mph - N/A   Overcast
6:53 PM 55.9 °F 50.0 °F 80% 30.12 in 10.0 mi Calm Calm - N/A   Overcast
7:12 PM 55.4 °F 50.0 °F 82% 30.12 in 10.0 mi NNE 4.6 mph - N/A   Overcast
7:37 PM 55.4 °F 50.0 °F 82% 30.12 in 10.0 mi Variable 4.6 mph - N/A   Overcast
7:53 PM 55.0 °F 50.0 °F 83% 30.13 in 10.0 mi East 5.8 mph - N/A   Overcast
8:10 PM 55.4 °F 48.2 °F 77% 30.13 in 10.0 mi ENE 3.5 mph - N/A   Overcast
8:53 PM 55.0 °F 48.9 °F 80% 30.15 in 10.0 mi Variable 3.5 mph - N/A   Overcast
10:53 PM 54.0 °F 48.9 °F 83% 30.16 in 10.0 mi Variable 4.6 mph - N/A   Overcast
11:53 PM 54.0 °F 48.9 °F 83% 30.16 in 10.0 mi Calm Calm - N/A   Overcast